If you wish to contribute or participate in the discussions about articles you are invited to join SKYbrary as a registered user

 Actions

Ambler Airport

From SKYbrary Wiki

PAFM
Airport
ICAO: PAFM – IATA: ABL
Summary
Name Ambler Airport
Region North America
Territory Alaska US.gif
Location Ambler, Alaska
Serving Ambler
Elevation 101.803 m <br />334 ft <br />334 ft101.803 m <br />
Type medium airport
Coordinates 67° 6' 23.00" N, 157° 51' 27.00" W
Runways
Designator Length Width Surface ROPS
9/27 732 m2,401.575 ft <br /> 18 m59.055 ft <br /> GVL /
18/36 914 m2,998.688 ft <br /> 18 m59.055 ft <br /> GVL /


METAR
Observation PAFM 172256Z AUTO 18003KT 10SM CLR 23/07 A3000 RMK AO2 SLP163 T02280072
Station Ambler, Ambler Airport
Date/Time 17 June 2021 22:56:00
Wind direction 180°
Wind speed 03 kts
Lowest cloud amount n/a
Temperature 22.8°C
Dew point 7.2°C
Humidity 36%
QNH hPa
Weather condition n/a

Maps

Terrain

Loading map...

Airport Layout

Loading map...


Accidents & Serious Incidents at or in vicinity of PAFM

None on SKYbrary